Tracking 29892 objects as of 21-Nov-2024
HD Live streaming from Space Station
objects crossing your sky now

STARLINK-4476

Track STARLINK-4476 now!
10-day predictions
STARLINK-4476 is classified as:


NORAD ID: 53419
Int'l Code: 2022-097AH
Perigee: 545.2 km
Apogee: 548.6 km
Inclination: 53.2 °
Period: 95.4 minutes
Semi major axis: 6917 km
RCS: Unknown
Launch date: August 10, 2022
Source: United States (US)
Launch site: AIR FORCE EASTERN TEST RANGE (AFETR)
Your satellite tracking list
Your tracking list is empty




NASA's NSSDC Master Catalog

Two Line Element Set (TLE):
1 53419U 22097AH  24324.61007635  .00001929  00000-0  13926-3 0  9990
2 53419  53.2170  86.8342 0002431  90.4999 269.6272 15.08844483126900
Source of the keplerian elements: AFSPC